This is the latest recevied weather packets stored in our database for station/object KD4UFD. If no packets are shown the sender has not sent any weather packets the latest 10 day(s).
| Time | Temp. | Humidity | Pressure | Rain* | Wind** | Luminosity | Snow |
|---|---|---|---|---|---|---|---|
| 1777480649 | 20° C | 86% | 1011.9 hPa | 0 mm | - | 269 W/m² | - |
| 1777480345 | 20° C | 86% | 1011.9 hPa | 0 mm | - | 161 W/m² | - |
| 1777480041 | 20° C | 86% | 1012.1 hPa | 0 mm | - | 229 W/m² | - |
| 1777479738 | 20° C | 85% | 1012 hPa | 0 mm | - | 173 W/m² | - |
| 1777479436 | 20.56° C | 85% | 1012.1 hPa | 0 mm | - | 247 W/m² | - |
| 1777479132 | 20° C | 87% | 1011.9 hPa | 0 mm | - | 279 W/m² | - |
| 1777478829 | 20° C | 87% | 1012.2 hPa | 0 mm | - | 158 W/m² | - |
| 1777478525 | 20° C | 87% | 1012.3 hPa | 0 mm | - | 193 W/m² | - |
| 1777478223 | 19.44° C | 87% | 1012.3 hPa | 0 mm | - | 150 W/m² | - |
| 1777477919 | 19.44° C | 87% | 1012.5 hPa | 0 mm | - | 99 W/m² | - |
| 1777477614 | 19.44° C | 87% | 1012.4 hPa | 0 mm | - | 111 W/m² | - |
| 1777477310 | 19.44° C | 87% | 1012.3 hPa | 0 mm | - | 121 W/m² | - |
| 1777477007 | 19.44° C | 86% | 1012.4 hPa | 0 mm | - | 144 W/m² | - |
| 1777476705 | 19.44° C | 87% | 1012.8 hPa | 0 mm | - | 107 W/m² | - |
| 1777476401 | 19.44° C | 86% | 1012.5 hPa | 0 mm | - | 128 W/m² | - |
| 1777476098 | 19.44° C | 86% | 1012.8 hPa | 0 mm | - | 85 W/m² | - |
| 1777475793 | 19.44° C | 86% | 1012.7 hPa | 0 mm | - | 124 W/m² | - |
| 1777475490 | 19.44° C | 86% | 1012.4 hPa | 0 mm | - | 96 W/m² | - |
| 1777475186 | 19.44° C | 85% | 1012.5 hPa | 0 mm | - | 74 W/m² | - |
| 1777474882 | 19.44° C | 85% | 1012.7 hPa | 0 mm | - | 93 W/m² | - |
| 1777474577 | 19.44° C | 85% | 1012.4 hPa | 0 mm | - | 124 W/m² | - |
| 1777474275 | 19.44° C | 84% | 1012.3 hPa | 0 mm | - | 189 W/m² | - |
| 1777473971 | 19.44° C | 84% | 1012.2 hPa | 0 mm | - | 205 W/m² | - |
| 1777473669 | 20° C | 83% | 1012.4 hPa | 0 mm | - | 246 W/m² | - |
| 1777473365 | 20° C | 83% | 1012.6 hPa | 0 mm | - | 259 W/m² | - |
* Rain latest hour (hover to see other rain measurements)
** Current wind speed in m/s (hover to see current wind gust speed)